sat.trackr.live / text

‹ back to catalog

LEMUR-2-CARROLLEMO

NORAD 68489 · 2026-067CB

PAYLOAD ACTIVE UNKNOWN

§ Identity

Operator
Country
GER
Launch date
2026-03-30
Launch site
AFWTR
Launch vehicle
Mass (kg)
RCS (m²)

External: N2YO · Heavens-Above · Gunter

§ Orbital elements

Epoch: 2026-09-19T15:14:36.224736Z

Period
96.51 min
Inclination
97.7634°
Eccentricity
0.0003746
Mean motion
14.92119981 rev/d
Perigee alt
588.7 km
Apogee alt
593.9 km
Semi-major
6,969.5 km
B*
2.3660e-4
RAAN
219.3174°
Arg perigee
100.2327°
Mean anomaly
259.9314°
Rev number
2,580

§ Raw data

LEMUR-2-CARROLLEMO1 68489U 26067CB  26262.63514149  .00002350  00000+0  23660-3 0  99962 68489  97.7634 219.3174 0003746 100.2327 259.9314 14.92119981 25808

JSON: /api/v1/satellites/68489 · /tle

For live sub-satellite position, see the globe view (requires WebGL).

§ Visibility from observer

Set your observer location to see the next 7 days of passes ≥ 10°. The values pass through the URL so the page stays shareable.

No JS? Fill the form by hand. The geolocation button needs JavaScript.